This is the latest recevied weather packets stored in our database for station/object JH7UAX-10. If no packets are shown the sender has not sent any weather packets the latest 10 day(s).
| Time | Temp. | Humidity | Pressure | Rain* | Wind** | Luminosity | Snow |
|---|---|---|---|---|---|---|---|
| 1777485179 | 3.89° C | 90% | 1033.3 hPa | 0 mm | - | - | - |
| 1777484278 | 3.89° C | 90% | 1033.2 hPa | 0 mm | - | - | - |
| 1777483806 | 3.89° C | 90% | 1033.4 hPa | 0 mm | - | - | - |
| 1777483378 | 3.89° C | 90% | 1033.2 hPa | 0 mm | - | - | - |
| 1777482478 | 3.89° C | 89% | 1033.2 hPa | 0 mm | - | - | - |
| 1777481580 | 4.44° C | 87% | 1033.1 hPa | 0 mm | - | - | - |
| 1777480680 | 5.56° C | 88% | 1032.8 hPa | 0 mm | - | - | - |
| 1777480205 | 5.56° C | 88% | 1032.8 hPa | 0 mm | - | - | - |
| 1777479779 | 5.56° C | 88% | 1032.8 hPa | 0 mm | - | - | - |
| 1777479305 | 5.56° C | 88% | 1032.9 hPa | 0 mm | - | - | - |
| 1777478879 | 5.56° C | 88% | 1032.9 hPa | 0 mm | - | - | - |
| 1777478404 | 5.56° C | 88% | 1033 hPa | 0 mm | - | - | - |
| 1777477979 | 5.56° C | 88% | 1032.9 hPa | 0 mm | - | - | - |
| 1777477507 | 5.56° C | 88% | 1032.9 hPa | 0 mm | - | - | - |
| 1777477079 | 5.56° C | 88% | 1033 hPa | 0 mm | - | - | - |
| 1777476605 | 5.56° C | 88% | 1033 hPa | 0 mm | - | - | - |
| 1777476179 | 6.11° C | 88% | 1033 hPa | 0 mm | - | - | - |
| 1777475279 | 6.11° C | 87% | 1033 hPa | 0 mm | - | - | - |
| 1777474379 | 6.11° C | 87% | 1033 hPa | 0 mm | - | - | - |
| 1777473907 | 6.67° C | 87% | 1033 hPa | 0 mm | - | - | - |
| 1777473478 | 6.67° C | 86% | 1032.9 hPa | 0 mm | - | - | - |
| 1777472578 | 6.67° C | 85% | 1032.9 hPa | 0 mm | - | - | - |
| 1777472106 | 6.67° C | 84% | 1032.8 hPa | 0 mm | - | - | - |
| 1777471678 | 7.22° C | 83% | 1032.8 hPa | 0 mm | - | - | - |
| 1777471206 | 7.78° C | 82% | 1032.8 hPa | 0 mm | - | - | - |
* Rain latest hour (hover to see other rain measurements)
** Current wind speed in m/s (hover to see current wind gust speed)